Flag for Comoros Weather past 2 weeks in Mutsamudu, Comoros

Now
79 °F

Passing clouds.


Feels Like: 82 °F
Forecast: 78 / 81 °F
Wind: 8 mph from Southwest

Location: Dzaoudzi / Pamanzi Mayotte

Current Time: May 25, 2015 at 3:39:48 AM

Latest Report: May 25, 2015 at 3:00 AM


Visibility: N/A

Pressure: 29.95 "Hg

Humidity: 79%

Dew point: 72 °F

Location of MutsamuduLocation

Historic Weather in Mutsamudu — Graph

°F

Mutsamudu temperature yesterday

Maximum temperature yesterday: 86 °F (at 10:00 AM)
Minimum temperature yesterday: 79 °F (at 12:00 AM)
Average temperature yesterday: 82 °F

Past Weeks' High & Low Weather Summary

 TemperatureHumidityPressure
High90 °F (May 10, 1:00 PM)89% (May 12, 1:30 PM)30.04 "Hg (May 12, 1:30 PM)
Low75 °F (May 16, 3:00 AM)52% (May 21, 11:00 AM)29.86 "Hg (May 13, 3:30 PM)
Average83 °F69%29.96 "Hg
* Reported May 10 2:00 AM — May 25 2:30 AM, Mutsamudu, Weather by CustomWeather, © 2015

Note: Actual official high and low records may vary slightly from our data, if they occured in-between our weather recording intervals... More about our weather records

Advertising

Mutsamudu weather history for previous 24 hours

 ConditionsComfort  
Time TempWeatherWind HumidityBarometerVisibility
2:30 AM
Mon, May 25
79 °FPassing clouds.9 mph79%29.95 "HgN/A
2:00 AM79 °FPassing clouds.10 mph79%29.95 "HgN/A
1:30 AM79 °FWarm.8 mph79%29.95 "HgN/A
1:00 AM79 °FWarm.10 mph74%29.98 "HgN/A
12:30 AM79 °FWarm.12 mph74%29.98 "HgN/A
12:00 AM79 °FWarm.10 mph79%29.98 "HgN/A
11:30 PM
Sun, May 24
79 °FWarm.8 mph79%29.98 "HgN/A
11:00 PM79 °FWarm.8 mph79%29.98 "HgN/A
10:30 PM79 °FWarm.8 mph79%29.98 "HgN/A
10:00 PM79 °FWarm.7 mph79%29.98 "HgN/A
9:30 PM79 °FWarm.6 mph74%29.98 "HgN/A
9:00 PM81 °FWarm.8 mph70%29.98 "HgN/A
8:30 PM79 °FWarm.7 mph74%29.98 "HgN/A
8:00 PM81 °FWarm.7 mph70%29.98 "HgN/A
7:30 PM81 °FPassing clouds.7 mph70%29.98 "HgN/A
7:00 PM81 °FPassing clouds.8 mph74%29.98 "HgN/A
6:30 PM81 °FWarm.7 mph70%29.95 "HgN/A
6:00 PM81 °FPassing clouds.7 mph70%29.95 "HgN/A
5:00 PM82 °FPassing clouds.7 mph62%29.95 "HgN/A
4:30 PM84 °FPassing clouds.7 mph58%29.95 "HgN/A
4:00 PM84 °FPassing clouds.8 mph62%29.95 "HgN/A
3:35 PM84 °FPassing clouds.9 mph62%29.95 "HgN/A
3:00 PM84 °FPassing clouds.9 mph62%29.95 "HgN/A
2:30 PM86 °FPassing clouds.9 mph62%29.95 "HgN/A
2:00 PM86 °FPassing clouds.9 mph62%29.95 "HgN/A
1:30 PM86 °FPassing clouds.9 mph62%29.95 "HgN/A
1:00 PM86 °FPassing clouds.10 mph59%29.98 "HgN/A
12:30 PM86 °FPassing clouds.10 mph59%29.98 "HgN/A
12:00 PM86 °FPassing clouds.10 mph59%29.98 "HgN/A
11:30 AM86 °FPassing clouds.12 mph55%30.01 "HgN/A
11:00 AM86 °FScattered clouds.13 mph62%30.01 "HgN/A
10:30 AM82 °FScattered clouds.9 mph79%30.01 "HgN/A
10:00 AM86 °FScattered showers. Scattered clouds.13 mph62%30.01 "HgN/A
9:30 AM84 °FScattered clouds.12 mph66%30.04 "HgN/A
9:00 AM84 °FScattered clouds.12 mph66%30.01 "HgN/A
8:30 AM84 °FScattered clouds.14 mph66%30.01 "HgN/A
8:00 AM82 °FScattered clouds.14 mph70%30.01 "HgN/A
7:30 AM82 °FScattered clouds.12 mph70%30.01 "HgN/A
7:00 AM81 °FScattered clouds.13 mph70%29.98 "HgN/A
6:30 AM81 °FScattered clouds.12 mph70%29.98 "HgN/A
6:00 AM81 °FPassing clouds.13 mph70%29.98 "HgN/A
5:30 AM81 °FPassing clouds.12 mph74%29.98 "HgN/A
5:00 AM81 °FPassing clouds.13 mph70%29.98 "HgN/A
4:30 AM81 °FPassing clouds.13 mph70%29.95 "HgN/A
4:01 AM79 °FPassing clouds.12 mph74%29.95 "HgN/A
3:30 AM79 °FWarm.9 mph74%29.95 "HgN/A
3:00 AM79 °FWarm.8 mph74%29.95 "HgN/A
Weather by CustomWeather, © 2015

See weather overviewHow to use our weather pages